Dewpoint
20 21 22 21 20 18 18 17 16 15 15 15 13 15 15 17 20 21 23 23 24 26 25 27 27 28 29 29 29 31 32 32 35 38 40 44 50 49 51 54 58 59 59
19 21 21 19 19 17 17 18 16 16 17 17 17 17 16 18 20 20 21 22 23 26 23 26 27 27 28 28 29 30 31 32 35 33 35 40 45 50 55 58 59 58 58
18 19 22 20 21 18 19 19 19 18 17 17 18 17 18 18 18 18 19 20 21 24 27 26 26 27 28 28 28 30 31 30 32 32 34 36 41 37 46 51 58 58 58
18 18 21 22 22 24 21 23 22 20 17 17 15 11 12 11 16 18 19 18 20 22 26 27 26 26 28 28 28 27 29 30 28 31 30 34 36 33 34 41 45 42 55
20 19 20 22 22 21 22 24 24 24 22 20 16 15 13 16 17 17 15 16 19 21 24 26 26 26 27 27 27 28 28 30 30 31 31 32 33 34 36 33 35 30 35
20 19 20 20 18 13 17 21 20 22 22 22 20 14 11 11 13 14 15 17 19 20 22 23 24 26 26 27 27 27 28 28 29 30 31 31 30 32 33 33 33 34 36
19 19 18 18 17 16 15 13 17 17 12 14 19 19 14 13 14 15 16 16 16 17 18 21 23 24 26 26 27 27 28 28 28 29 29 31 31 32 31 31 29 30 32
16 19 19 19 20 18 14 10 11 10 14 9 14 18 16 16 17 16 17 16 16 17 19 21 23 24 26 26 26 27 27 27 28 27 28 29 29 30 31 32 31 29 28
20 21 22 22 20 17 15 15 12 6 5 9 5 13 16 16 15 15 16 16 17 16 18 20 22 23 24 25 25 25 25 26 26 27 27 28 28 29 30 31 31 31 27
25 25 24 23 24 22 18 17 17 16 11 6 5 9 11 16 16 16 15 15 17 18 19 20 22 23 23 24 24 24 25 25 26 26 26 27 27 28 29 30 30 31 30
20 23 25 25 25 26 25 23 21 17 15 13 5 6 10 14 15 16 16 16 16 18 17 19 21 22 23 23 24 24 24 24 24 25 25 25 26 26 27 28 29 30 31
15 20 23 24 25 25 24 22 20 17 15 10 7 6 7 10 14 15 15 16 17 17 17 19 20 21 22 23 24 24 24 24 24 24 25 25 24 25 25 26 26 27 28
17 16 17 21 22 23 22 21 20 19 15 12 9 5 4 1 6 11 14 15 16 17 17 17 19 20 22 23 24 24 24 25 24 25 25 25 25 25 25 25 26 26 25
18 17 17 20 21 23 23 21 20 20 17 14 10 9 7 5 5 5 11 14 15 16 16 16 18 20 21 22 23 23 24 26 26 26 26 26 26 26 25 25 25 25 26
23 21 18 16 16 18 20 21 20 19 17 14 12 8 2 -2 -2 -0 6 10 13 15 16 17 18 19 20 20 22 24 26 27 27 28 28 28 29 30 30 28 26 26 26
24 21 21 20 19 18 20 20 19 16 14 13 12 10 2 -4 -0 1 2 4 10 10 12 15 17 18 19 23 25 25 24 25 28 28 28 28 29 29 31 31 32 33 28
25 24 21 19 18 18 19 16 16 13 13 11 8 10 7 6 2 0 -4 -1 4 3 6 10 14 16 18 23 25 25 23 25 27 27 27 26 25 27 26 29 30 32 35
18 19 20 20 18 17 15 14 13 13 11 8 7 4 7 7 5 -1 -3 -3 -2 1 3 8 11 13 17 23 24 25 23 24 26 26 26 26 26 28 28 28 30 30 28
19 19 20 20 20 18 17 16 15 12 12 9 8 8 5 4 3 3 -0 -3 -3 -1 1 3 8 10 13 22 23 23 23 23 25 26 25 26 27 29 30 28 28 28 28
19 18 19 21 21 21 21 15 16 14 12 12 11 9 8 5 2 3 -0 0 -3 -0 6 7 6 14 16 21 23 23 24 24 24 25 25 25 24 26 27 25 26 25 25
18 18 20 20 21 22 23 17 14 14 14 11 10 10 11 7 4 1 -3 -0 1 4 4 5 10 11 14 17 23 24 23 24 25 22 21 21 25 27 28 29 28 28 27
18 18 19 20 20 22 22 20 15 15 13 10 9 10 10 9 11 5 -2 -2 -1 3 7 9 12 13 13 20 22 23 23 24 24 20 21 22 26 25 26 27 31 36 38
19 18 20 20 21 22 22 21 20 10 9 7 5 6 6 6 11 7 2 3 1 3 7 10 11 15 16 16 21 21 22 23 21 22 23 23 23 23 22 25 27 27 33
18 18 21 21 21 21 23 22 18 8 6 4 3 3 2 4 6 6 10 6 6 9 14 12 13 15 15 16 17 17 17 20 18 20 17 19 19 19 19 19 21 21 24
17 19 21 20 20 22 22 22 16 8 4 2 2 1 2 7 5 4 6 5 10 13 14 11 15 16 14 16 18 17 16 16 17 14 13 13 13 12 14 15 17 19 20
18 18 17 16 16 17 18 20 21 7 5 1 1 1 3 5 4 5 5 9 13 15 16 16 16 15 16 18 18 17 16 17 17 10 9 10 11 11 13 14 14 17 19
Lifted_Index
12 13 14 16 17 18 19 19 19 20 20 19 19 19 18 19 20 21 21 21 21 21 20 20 19 19 18 17 16 15 14 14 14 12 10 8 5 3 2 1 0 -1 -1
12 13 14 15 16 17 18 19 19 19 20 20 20 20 20 20 20 21 21 21 22 21 21 20 20 19 18 18 17 16 14 14 14 13 10 8 7 5 3 2 1 0 -0
12 13 13 14 15 17 18 19 19 19 20 20 20 20 20 20 20 20 21 22 22 22 21 21 20 20 19 18 18 17 15 14 14 14 12 10 8 7 5 3 2 1 0
12 13 13 14 15 16 18 19 19 19 19 19 19 19 18 18 19 20 21 21 22 22 22 22 21 21 20 19 19 18 17 15 15 15 14 13 11 9 7 5 3 2 1
12 13 14 14 15 17 17 18 18 18 19 19 18 18 17 18 19 19 20 21 21 22 22 22 22 21 21 20 19 19 18 17 16 16 16 15 13 12 9 7 6 5 4
11 12 13 14 15 16 17 17 18 18 18 18 18 18 17 17 18 19 19 19 20 21 22 22 22 21 21 20 20 19 19 18 17 17 17 16 15 14 12 10 9 8 8
10 11 13 14 15 15 16 17 17 17 17 18 18 18 18 18 18 18 19 19 20 21 22 22 22 22 21 20 20 19 19 18 18 17 17 17 16 16 15 14 12 10 10
10 12 13 14 14 15 15 16 16 17 17 17 18 18 18 18 19 19 20 20 20 21 22 22 22 22 21 20 20 19 18 18 17 17 17 17 17 17 17 16 14 12 10
12 12 13 13 14 15 15 16 16 16 17 17 18 18 18 19 19 20 21 21 21 22 22 22 22 22 21 20 19 18 17 17 17 17 17 17 17 17 17 17 16 14 12
12 13 13 13 14 15 15 15 16 16 16 17 17 18 18 19 19 20 21 21 22 22 22 22 22 21 20 19 18 18 17 17 16 16 16 16 16 16 16 17 17 16 15
12 13 13 13 13 14 14 14 14 15 16 17 17 18 18 18 19 20 20 21 21 22 22 22 21 21 20 19 18 17 16 16 16 16 16 16 16 16 16 16 16 16 16
12 13 13 13 13 13 13 13 14 14 15 17 17 18 18 18 18 19 20 21 21 21 22 22 21 21 20 19 18 17 16 16 15 15 15 15 15 16 16 16 15 15 16
12 12 12 12 13 13 13 13 13 14 15 16 17 17 17 18 18 19 20 21 21 22 22 22 22 21 21 20 19 18 17 16 16 16 16 16 16 15 15 15 15 15 15
10 11 11 12 13 13 13 13 14 14 15 16 17 17 18 18 19 19 20 21 21 22 22 22 22 22 22 21 20 20 19 18 18 18 17 17 17 16 16 16 15 15 15
9 10 11 11 12 13 13 13 13 14 15 16 17 17 18 19 19 20 20 21 22 22 23 23 23 23 22 22 22 21 20 20 19 19 19 19 18 18 18 18 17 16 16
9 10 11 11 12 12 12 12 12 13 15 16 16 17 18 19 19 20 20 21 21 22 23 23 23 23 23 23 23 22 22 21 20 20 20 20 20 20 20 20 19 18 17
10 10 11 11 11 12 12 12 12 13 14 15 16 17 18 18 19 19 20 21 21 22 23 23 23 23 23 23 23 23 23 23 22 21 20 19 19 20 20 20 20 19 19
10 10 11 11 11 12 12 12 12 13 14 15 16 17 17 18 18 19 20 21 22 22 23 24 24 23 23 24 24 24 23 23 23 22 20 19 19 19 19 19 19 19 19
10 10 11 11 11 12 12 12 12 13 13 14 15 17 17 18 18 19 20 21 22 22 23 24 24 24 24 24 24 24 24 23 23 22 20 19 18 19 20 20 19 18 18
10 10 11 11 11 12 12 12 12 12 13 14 16 17 18 18 18 19 20 21 22 22 23 24 24 24 24 24 24 24 24 23 22 21 19 18 18 19 21 21 19 17 16
8 9 10 10 11 11 12 12 12 12 13 14 15 17 18 18 19 19 20 21 22 22 23 23 24 24 24 24 24 24 24 23 21 19 18 18 19 20 21 21 18 16 15
7 8 8 9 10 10 11 11 12 12 13 13 14 16 17 18 19 19 20 21 21 22 22 22 23 23 24 24 24 25 24 23 21 19 19 19 19 20 20 19 17 15 14
7 7 8 8 8 9 10 10 11 12 12 13 14 15 17 18 19 19 20 21 21 22 22 22 22 22 23 24 24 24 24 22 21 20 20 20 20 20 20 19 16 14 13
7 8 8 7 8 8 9 9 10 10 11 12 13 15 17 18 19 19 20 21 22 22 22 22 22 22 23 24 24 24 24 23 22 21 20 19 19 20 20 19 16 14 13
8 8 8 8 8 8 8 8 9 9 10 11 13 15 16 17 18 19 20 21 22 23 23 22 22 22 23 24 25 25 25 24 23 21 19 17 17 19 20 19 17 15 13
9 8 8 8 8 8 8 8 8 9 9 10 12 14 16 17 17 18 20 21 23 23 23 23 23 23 24 24 25 25 25 25 24 22 19 16 16 18 19 20 18 16 15